SCP
0 -0 0 0 -0 -0 -0 -0 0 -0 -0 -0 -0 -0 -0 -0 -0 0 -0 0 -0 0 -0 -0 -0 -0 -0 0 0 -0 0 -0 -0 0 -0 -0 -0 -0 0 0 0 0 0 -0 -0
0 0 0 0 0 -0 -0 -0 -0 0 0 -0 -0 -0 -0 -0 -0 -0 0 0 0 0 -0 -0 -0 -0 0 -0 -0 -0 0 -0 -0 -0 -0 -0 -0 -0 -0 -0 -0 -0 0 -0 -0
0 0 0 0 0 -0 -0 -0 -0 0 -0 -0 -0 -0 -0 -0 -0 -0 0 0 -0 0 -0 -0 -0 -0 -0 -0 0 0 0 -0 -0 -0 -0 0 -0 0 0 -0 0 -0 -0 -0 -0
0 0 0 0 0 0 -0 0 0 0 0 0 0 -0 -0 -0 -0 -0 0 0 -0 0 -0 -0 -0 -0 0 -0 0 0 0 0 -0 0 0 0 0 0 -0 -0 -0 -1 -1 -0 -0
0 0 0 0 0 0 0 0 0 -0 0 0 0 -0 -0 -0 -0 -0 0 0 0 0 -0 -0 -0 0 -0 0 -0 0 0 0 0 0 0 0 0 0 0 -0 0 0 -0 -0 -0
0 0 0 0 0 0 0 0 0 0 -0 0 0 0 -0 -0 0 0 0 0 0 0 -0 -0 0 0 0 0 0 0 -0 -0 0 0 0 0 0 -0 0 0 0 0 0 0 0
0 0 0 0 0 0 0 0 0 0 -0 -0 0 0 -0 -0 0 0 -0 0 0 0 -0 -0 0 0 0 -0 0 0 0 0 0 0 0 0 0 0 0 0 0 0 1 1 0
0 0 0 0 0 0 0 0 0 0 0 -0 0 0 0 0 0 -0 -0 0 0 -0 0 0 0 0 0 0 -0 -0 0 -0 0 0 0 -0 0 0 0 0 0 0 0 1 0
0 0 0 0 0 0 0 0 0 0 0 -0 0 0 0 0 0 0 0 0 0 0 0 0 0 0 -0 -0 0 0 0 -0 -0 0 0 -0 0 0 0 0 0 0 0 0 0
0 0 0 0 0 0 0 0 0 0 0 0 0 0 0 -0 -0 -0 0 0 0 0 -0 -0 0 -0 -0 -0 0 0 -0 0 0 0 -0 0 0 0 0 0 0 0 0 1 0
0 0 0 0 0 0 0 0 0 0 0 0 0 0 0 0 0 0 0 0 0 -0 0 -0 0 -0 -0 0 0 -0 0 0 0 0 -0 0 0 0 0 0 0 0 0 1 0
0 0 0 0 0 0 0 0 0 0 0 -0 0 0 0 0 0 0 -0 0 0 -0 0 0 0 -0 0 0 0 0 0 0 0 0 -0 0 0 0 0 0 0 0 0 0 -0
0 0 0 0 0 0 -0 0 0 0 0 0 0 0 0 0 0 -0 -0 0 0 0 0 0 -0 0 0 0 0 -0 -0 0 0 0 -0 0 0 0 0 0 0 -0 -0 -0 -0
0 0 0 0 0 0 -0 -0 0 0 0 0 0 0 0 -0 -0 0 -0 -0 0 0 0 -0 0 0 0 0 0 -0 0 0 0 0 0 -0 0 0 -0 0 0 -0 -0 -0 -0
0 0 0 0 0 0 0 0 0 0 0 0 0 0 0 0 0 0 0 -0 -0 -0 -0 0 0 0 0 0 0 0 0 0 0 -0 -0 0 0 -0 -0 -0 -0 -0 -0 -0 -0
0 0 0 0 0 0 0 0 0 0 0 0 0 0 0 -0 0 0 0 0 0 -0 -0 0 0 0 0 0 0 0 0 -0 -0 -0 0 0 -0 0 -0 -0 -0 -0 -0 -0 -0
0 0 0 0 0 0 0 0 0 0 0 0 0 0 0 0 0 0 0 0 -0 -0 -0 -0 0 0 0 0 0 0 -0 0 0 -0 0 -0 -0 0 -0 -0 -0 -0 -0 -0 -0
0 -0 0 -0 0 0 0 0 0 0 0 0 0 0 0 0 0 0 0 0 -0 0 0 0 0 -0 0 -0 -0 -0 -0 0 -0 0 0 -0 -0 0 -0 -0 -0 -0 -0 -0 -0
-0 -0 0 0 0 0 0 0 -0 0 0 0 0 0 -0 0 0 0 0 -0 0 -0 -0 -0 0 -0 -0 0 0 -0 0 0 -0 -0 0 0 0 -0 -0 -0 -0 -0 -0 -0 -0
0 -0 0 0 0 0 0 0 0 0 0 0 0 0 0 0 0 0 0 -0 -0 -0 0 0 0 0 0 0 0 -0 0 0 -0 0 -0 0 -0 -0 -0 -0 -0 -0 -0 -0 -0
0 -0 0 0 0 0 0 0 0 0 0 0 -0 0 0 0 0 0 0 0 0 0 -0 -0 0 0 0 -0 0 0 0 -0 -0 0 0 0 0 0 -0 -0 -0 -0 -0 -0 -0
-0 0 0 0 0 0 0 0 0 0 0 0 0 0 0 0 0 0 0 0 0 0 -0 0 0 0 0 0 -0 -0 -0 -0 0 -0 0 -0 0 0 -0 -0 -0 -0 -0 -0 -0
-0 -0 0 0 0 0 0 0 0 0 0 0 0 0 0 0 0 0 0 0 0 -0 0 -0 0 0 -0 -0 0 0 0 0 0 0 0 0 0 0 -0 -0 -0 -0 -0 -0 -0
-0 0 0 0 0 0 0 0 0 -0 0 0 0 0 0 0 0 0 0 0 0 -0 0 0 0 0 0 0 0 0 0 0 0 0 0 0 -0 0 0 -0 -0 -0 -0 -1 -1
0 0 0 0 0 0 0 0 0 0 0 0 0 0 0 0 0 0 0 0 0 0 0 -0 0 0 0 0 0 0 -0 0 -0 0 0 0 0 0 0 -0 -0 -0 -1 -1 -1
0 0 0 0 0 0 0 0 0 0 0 0 0 0 0 0 0 0 -0 0 0 0 0 -0 0 0 -0 0 0 0 0 -0 -0 0 0 -0 0 -0 -0 -0 0 -0 0 0 -0
0 0 0 0 0 0 0 0 0 0 0 0 0 0 0 0 0 -0 0 0 0 -0 0 0 0 0 0 0 0 0 0 0 0 0 0 0 0 -0 0 0 0 0 0 0 0
Wind_Speed_500mb
24 23 17 12 13 15 19 21 20 21 21 21 21 22 24 26 27 26 27 21 24 16 9 12 15 12 11 6 7 15 10 10 32 5 19 17 9 11 3 21 9 9 12 38 43
24 24 22 14 11 13 17 21 21 20 21 20 19 18 19 21 26 36 32 37 31 18 13 13 15 13 13 8 10 20 11 17 14 17 20 18 14 21 17 25 27 20 21 38 44
24 22 22 19 14 11 14 19 21 21 19 19 17 15 14 12 18 43 37 40 30 22 15 15 17 19 15 12 10 5 17 8 10 19 19 16 11 8 11 33 14 42 34 41 42
24 23 21 20 17 14 14 17 21 21 19 18 16 14 12 13 10 11 27 37 32 24 19 17 18 23 14 12 10 13 8 5 10 6 5 6 10 8 17 25 15 40 37 37 41
23 23 22 21 20 15 15 16 20 21 20 18 16 14 11 18 28 9 26 35 32 26 23 18 18 9 13 2 9 16 6 3 2 8 9 7 5 7 15 24 11 19 34 35 38
22 22 23 22 21 18 16 16 19 21 20 18 17 14 12 29 15 5 16 31 30 30 26 21 10 9 14 4 17 5 10 12 3 5 8 3 4 11 15 11 8 19 30 32 38
22 21 22 22 22 19 15 14 18 20 20 18 16 14 19 21 13 13 18 31 31 32 27 22 12 20 5 13 6 16 19 20 6 4 7 11 10 8 6 5 12 22 25 27 34
22 21 20 21 21 19 12 12 16 18 18 16 13 11 19 20 23 22 24 31 31 29 23 17 15 20 21 6 23 25 23 14 15 10 11 21 13 9 7 12 15 19 27 22 20
24 20 19 20 20 16 7 11 16 17 16 14 6 11 23 19 28 28 31 36 32 27 23 14 17 33 21 26 26 22 13 38 27 7 2 16 14 9 6 9 12 17 21 23 21
24 20 18 18 17 9 9 13 15 15 14 12 13 16 28 27 32 35 35 37 36 30 28 26 27 28 29 32 8 12 26 15 1 13 10 6 8 9 10 8 18 24 19 22 17
24 22 18 15 13 9 22 19 8 9 29 22 15 13 14 23 31 36 40 32 41 38 34 42 28 30 41 12 14 16 6 12 17 7 11 0 5 10 13 11 8 6 6 0 21
26 21 17 15 11 18 31 17 11 7 18 48 19 30 12 22 31 39 42 44 39 35 43 27 33 38 9 0 12 16 16 19 14 9 19 10 8 10 14 7 2 17 12 25 23
28 22 16 14 11 23 33 19 7 11 17 31 41 29 23 31 39 46 49 49 43 41 42 39 31 33 7 20 24 25 27 10 5 13 21 14 10 11 11 13 13 23 26 29 30
30 22 13 6 2 11 29 28 14 10 12 29 30 26 31 35 33 44 45 46 28 43 43 32 19 8 19 24 27 30 2 13 20 21 5 31 12 27 22 20 17 24 29 33 27
31 22 12 16 14 15 10 18 13 7 12 35 37 26 33 46 35 37 43 43 34 40 34 34 38 29 27 29 29 23 10 23 24 29 33 14 12 26 21 22 23 30 29 31 28
27 19 14 19 25 25 11 13 8 15 13 20 26 29 34 43 35 44 42 38 34 31 36 37 29 22 33 31 17 22 20 28 27 32 21 9 32 10 33 22 25 32 33 34 37
25 20 21 23 4 17 17 22 13 22 23 25 28 41 39 31 33 41 43 38 34 31 39 33 30 23 29 16 28 30 30 10 19 25 2 27 23 14 43 25 27 33 38 39 36
15 10 20 34 14 17 24 18 21 30 18 19 27 40 40 41 35 35 40 38 41 37 28 29 32 37 30 37 32 33 38 15 18 15 8 35 7 18 31 24 37 40 41 42 41
6 9 11 21 25 23 33 24 22 10 7 14 29 38 37 39 25 35 41 41 41 39 37 34 36 45 44 31 35 35 32 42 42 31 22 11 10 25 30 29 28 46 44 43 41
18 11 9 15 29 23 22 35 12 11 14 16 26 33 35 40 24 32 37 40 40 43 40 14 22 33 41 40 43 38 27 20 32 30 28 1 29 29 32 32 30 37 43 43 41
7 17 8 22 22 27 21 30 3 12 15 18 30 25 32 31 35 31 25 19 42 39 36 36 29 25 40 30 34 24 30 35 25 4 20 7 16 36 33 36 35 38 43 41 39
11 5 21 27 21 34 25 26 7 12 17 13 16 14 24 30 34 34 30 31 32 39 44 35 22 25 36 33 38 43 30 36 27 16 13 27 9 33 26 39 44 42 42 41 35
10 14 21 24 14 23 30 5 19 17 17 14 20 21 17 27 24 25 25 19 12 39 42 33 18 23 33 37 18 24 35 33 37 36 12 13 8 25 37 43 45 46 44 45 38
16 10 18 31 36 28 31 23 30 28 20 17 18 8 14 25 28 19 25 16 17 35 38 38 32 29 24 29 21 35 39 39 42 31 15 17 27 12 29 41 46 46 43 41 39
12 8 10 18 26 22 6 7 23 21 24 19 19 26 23 16 28 29 27 29 22 18 32 38 35 37 37 9 21 9 37 40 42 44 37 6 24 16 21 40 46 48 48 48 45
16 13 6 20 1 17 13 23 25 23 7 23 28 19 19 24 34 15 30 20 27 32 33 37 33 29 41 35 22 19 30 33 31 34 23 30 15 34 69 28 36 44 48 50 49
17 12 13 6 18 20 13 1 10 6 21 32 6 21 23 12 29 26 24 14 24 32 33 34 30 33 31 37 28 23 32 26 25 30 26 24 21 57 36 27 34 41 45 47 49
Wind_Direction_500mb
359 359 346 309 272 255 244 240 237 237 239 243 246 249 251 252 252 254 246 227 222 241 237 290 284 287 295 250 273 261 277 57 70 36 111 126 177 142 316 113 93 80 44 144 159
353 355 355 336 301 270 251 238 237 234 234 239 242 247 253 256 255 255 234 231 231 221 239 274 304 307 253 191 193 277 81 52 5 48 124 129 257 156 218 156 145 110 105 147 157
345 348 350 345 320 287 262 242 233 231 229 232 235 241 246 255 280 246 227 229 218 211 225 270 282 276 279 218 141 238 52 99 107 10 341 94 193 306 266 4 178 143 149 157 165
335 339 340 342 325 298 272 249 232 226 224 226 228 230 229 201 225 148 216 216 208 202 238 262 265 252 257 201 148 209 125 104 14 35 337 310 342 307 317 160 16 134 155 164 173
324 327 330 332 332 301 273 251 232 221 217 216 218 218 203 228 250 283 203 200 200 199 223 238 261 270 224 204 207 231 153 219 258 311 288 286 52 4 348 337 330 124 158 173 177
318 319 321 323 325 312 277 248 228 215 210 207 209 208 210 246 200 212 171 190 193 197 215 226 270 299 291 237 255 39 256 256 192 293 87 178 116 257 30 344 182 161 166 176 183
311 312 314 317 319 314 283 242 219 208 203 202 203 208 244 226 205 201 181 185 192 196 212 216 254 262 323 192 235 264 251 214 179 351 68 150 128 51 29 90 136 171 141 170 191
312 306 307 312 315 312 278 233 204 198 195 195 197 204 251 228 216 208 184 187 192 198 223 211 239 265 261 266 237 243 225 204 110 315 121 239 135 123 139 154 154 153 167 178 193
319 302 303 306 313 309 254 195 178 181 188 183 172 213 246 226 204 192 188 189 186 194 206 215 237 248 215 234 217 213 291 135 215 68 187 231 115 113 171 161 156 164 189 201 198
320 305 300 302 311 292 182 162 165 175 176 185 242 233 233 207 188 189 188 190 190 188 203 219 229 230 233 231 253 253 177 178 48 97 234 120 87 151 175 197 181 202 227 153 181
322 311 299 299 305 213 159 133 143 217 210 208 210 246 136 154 175 187 186 192 191 197 209 207 224 224 227 108 181 277 299 276 119 148 234 13 131 165 164 184 194 245 340 90 152
321 310 298 296 289 203 187 205 343 329 249 223 229 231 211 190 184 190 185 197 199 203 212 190 233 235 95 90 252 256 240 250 134 179 253 175 154 163 178 139 168 113 125 143 147
317 307 298 294 276 211 200 206 249 336 257 178 209 218 198 197 200 187 189 199 201 213 204 228 195 245 167 217 228 233 245 263 169 209 236 195 103 292 173 143 133 125 133 148 145
312 299 290 285 14 209 228 238 249 312 268 154 191 211 193 197 216 187 196 199 201 216 219 229 234 207 242 236 236 247 151 257 269 240 156 266 229 244 187 144 164 149 155 159 151
306 289 257 209 188 192 128 192 198 260 255 141 151 149 181 199 165 193 192 206 223 215 223 207 233 181 230 226 215 265 249 263 240 251 232 200 288 325 169 162 155 160 166 160 162
301 280 239 220 226 180 206 194 177 228 246 152 151 186 174 204 178 172 192 216 225 224 224 235 205 240 232 223 246 265 246 243 238 244 240 244 259 73 291 130 147 155 163 152 159
295 272 219 186 185 207 187 179 214 241 125 155 174 174 190 186 199 175 191 201 207 213 214 217 236 208 250 234 202 228 244 237 254 231 147 239 270 175 253 143 146 153 158 161 160
291 230 195 189 225 177 176 211 247 215 209 141 174 175 195 178 197 179 195 202 216 219 202 206 213 204 199 232 213 219 241 116 254 316 35 247 139 175 161 130 140 152 158 160 164
101 149 184 206 183 178 201 217 220 233 132 180 170 182 198 181 199 200 204 214 202 223 239 195 229 197 218 209 243 240 237 136 236 262 213 63 131 128 139 147 158 152 159 165 168
106 144 143 178 170 173 224 244 298 11 307 278 195 190 193 183 210 196 198 211 217 206 243 265 214 211 192 220 222 252 286 255 230 222 272 66 286 130 165 151 169 160 165 170 173
121 193 165 159 163 204 223 233 239 176 259 249 220 183 207 191 201 193 204 216 212 196 220 249 234 170 192 204 222 208 248 258 283 46 284 125 320 316 164 168 169 170 167 170 172
283 214 164 161 201 212 226 245 16 239 195 266 307 275 222 213 197 229 230 211 192 205 205 225 217 213 190 213 226 246 238 243 250 224 157 249 195 254 204 173 174 165 172 166 167
258 105 170 185 228 194 236 257 232 255 232 220 225 241 217 224 195 229 202 179 194 211 201 208 241 237 197 206 198 252 249 274 272 244 70 352 198 228 168 170 177 170 165 161 166
269 149 165 213 265 277 206 218 217 202 278 292 299 279 245 185 202 199 222 149 188 209 197 221 234 249 219 219 215 211 229 246 256 266 123 259 233 172 200 173 173 171 170 167 175
243 9 135 187 232 247 318 293 214 229 196 208 237 248 207 216 216 205 214 150 200 182 179 218 226 245 261 219 249 242 257 232 236 253 255 168 330 24 255 165 169 168 168 170 175
319 338 246 305 346 210 172 232 230 226 250 211 236 207 231 243 315 178 199 170 187 179 195 206 241 240 251 255 220 259 268 264 244 248 264 55 332 85 257 147 164 175 177 174 175
341 299 279 179 221 222 206 241 244 333 259 257 9 324 278 319 10 252 130 195 166 189 203 219 225 229 243 233 247 242 258 256 254 237 266 182 156 182 191 153 176 178 180 177 178
Wind_Speed_850mb
24 23 17 12 13 15 19 21 20 21 21 21 21 22 24 26 27 26 27 21 24 16 9 12 15 12 11 6 7 15 10 10 32 5 19 17 9 11 3 21 9 9 12 38 43
24 24 22 14 11 13 17 21 21 20 21 20 19 18 19 21 26 36 32 37 31 18 13 13 15 13 13 8 10 20 11 17 14 17 20 18 14 21 17 25 27 20 21 38 44
24 22 22 19 14 11 14 19 21 21 19 19 17 15 14 12 18 43 37 40 30 22 15 15 17 19 15 12 10 5 17 8 10 19 19 16 11 8 11 33 14 42 34 41 42
24 23 21 20 17 14 14 17 21 21 19 18 16 14 12 13 10 11 27 37 32 24 19 17 18 23 14 12 10 13 8 5 10 6 5 6 10 8 17 25 15 40 37 37 41
23 23 22 21 20 15 15 16 20 21 20 18 16 14 11 18 28 9 26 35 32 26 23 18 18 9 13 2 9 16 6 3 2 8 9 7 5 7 15 24 11 19 34 35 38
22 22 23 22 21 18 16 16 19 21 20 18 17 14 12 29 15 5 16 31 30 30 26 21 10 9 14 4 17 5 10 12 3 5 8 3 4 11 15 11 8 19 30 32 38
22 21 22 22 22 19 15 14 18 20 20 18 16 14 19 21 13 13 18 31 31 32 27 22 12 20 5 13 6 16 19 20 6 4 7 11 10 8 6 5 12 22 25 27 34
22 21 20 21 21 19 12 12 16 18 18 16 13 11 19 20 23 22 24 31 31 29 23 17 15 20 21 6 23 25 23 14 15 10 11 21 13 9 7 12 15 19 27 22 20
24 20 19 20 20 16 7 11 16 17 16 14 6 11 23 19 28 28 31 36 32 27 23 14 17 33 21 26 26 22 13 38 27 7 2 16 14 9 6 9 12 17 21 23 21
24 20 18 18 17 9 9 13 15 15 14 12 13 16 28 27 32 35 35 37 36 30 28 26 27 28 29 32 8 12 26 15 1 13 10 6 8 9 10 8 18 24 19 22 17
24 22 18 15 13 9 22 19 8 9 29 22 15 13 14 23 31 36 40 32 41 38 34 42 28 30 41 12 14 16 6 12 17 7 11 0 5 10 13 11 8 6 6 0 21
26 21 17 15 11 18 31 17 11 7 18 48 19 30 12 22 31 39 42 44 39 35 43 27 33 38 9 0 12 16 16 19 14 9 19 10 8 10 14 7 2 17 12 25 23
28 22 16 14 11 23 33 19 7 11 17 31 41 29 23 31 39 46 49 49 43 41 42 39 31 33 7 20 24 25 27 10 5 13 21 14 10 11 11 13 13 23 26 29 30
30 22 13 6 2 11 29 28 14 10 12 29 30 26 31 35 33 44 45 46 28 43 43 32 19 8 19 24 27 30 2 13 20 21 5 31 12 27 22 20 17 24 29 33 27
31 22 12 16 14 15 10 18 13 7 12 35 37 26 33 46 35 37 43 43 34 40 34 34 38 29 27 29 29 23 10 23 24 29 33 14 12 26 21 22 23 30 29 31 28
27 19 14 19 25 25 11 13 8 15 13 20 26 29 34 43 35 44 42 38 34 31 36 37 29 22 33 31 17 22 20 28 27 32 21 9 32 10 33 22 25 32 33 34 37
25 20 21 23 4 17 17 22 13 22 23 25 28 41 39 31 33 41 43 38 34 31 39 33 30 23 29 16 28 30 30 10 19 25 2 27 23 14 43 25 27 33 38 39 36
15 10 20 34 14 17 24 18 21 30 18 19 27 40 40 41 35 35 40 38 41 37 28 29 32 37 30 37 32 33 38 15 18 15 8 35 7 18 31 24 37 40 41 42 41
6 9 11 21 25 23 33 24 22 10 7 14 29 38 37 39 25 35 41 41 41 39 37 34 36 45 44 31 35 35 32 42 42 31 22 11 10 25 30 29 28 46 44 43 41
18 11 9 15 29 23 22 35 12 11 14 16 26 33 35 40 24 32 37 40 40 43 40 14 22 33 41 40 43 38 27 20 32 30 28 1 29 29 32 32 30 37 43 43 41
7 17 8 22 22 27 21 30 3 12 15 18 30 25 32 31 35 31 25 19 42 39 36 36 29 25 40 30 34 24 30 35 25 4 20 7 16 36 33 36 35 38 43 41 39
11 5 21 27 21 34 25 26 7 12 17 13 16 14 24 30 34 34 30 31 32 39 44 35 22 25 36 33 38 43 30 36 27 16 13 27 9 33 26 39 44 42 42 41 35
10 14 21 24 14 23 30 5 19 17 17 14 20 21 17 27 24 25 25 19 12 39 42 33 18 23 33 37 18 24 35 33 37 36 12 13 8 25 37 43 45 46 44 45 38
16 10 18 31 36 28 31 23 30 28 20 17 18 8 14 25 28 19 25 16 17 35 38 38 32 29 24 29 21 35 39 39 42 31 15 17 27 12 29 41 46 46 43 41 39
12 8 10 18 26 22 6 7 23 21 24 19 19 26 23 16 28 29 27 29 22 18 32 38 35 37 37 9 21 9 37 40 42 44 37 6 24 16 21 40 46 48 48 48 45
16 13 6 20 1 17 13 23 25 23 7 23 28 19 19 24 34 15 30 20 27 32 33 37 33 29 41 35 22 19 30 33 31 34 23 30 15 34 69 28 36 44 48 50 49
17 12 13 6 18 20 13 1 10 6 21 32 6 21 23 12 29 26 24 14 24 32 33 34 30 33 31 37 28 23 32 26 25 30 26 24 21 57 36 27 34 41 45 47 49
Wind_Direction_850mb
359 359 346 309 272 255 244 240 237 237 239 243 246 249 251 252 252 254 246 227 222 241 237 290 284 287 295 250 273 261 277 57 70 36 111 126 177 142 316 113 93 80 44 144 159
353 355 355 336 301 270 251 238 237 234 234 239 242 247 253 256 255 255 234 231 231 221 239 274 304 307 253 191 193 277 81 52 5 48 124 129 257 156 218 156 145 110 105 147 157
345 348 350 345 320 287 262 242 233 231 229 232 235 241 246 255 280 246 227 229 218 211 225 270 282 276 279 218 141 238 52 99 107 10 341 94 193 306 266 4 178 143 149 157 165
335 339 340 342 325 298 272 249 232 226 224 226 228 230 229 201 225 148 216 216 208 202 238 262 265 252 257 201 148 209 125 104 14 35 337 310 342 307 317 160 16 134 155 164 173
324 327 330 332 332 301 273 251 232 221 217 216 218 218 203 228 250 283 203 200 200 199 223 238 261 270 224 204 207 231 153 219 258 311 288 286 52 4 348 337 330 124 158 173 177
318 319 321 323 325 312 277 248 228 215 210 207 209 208 210 246 200 212 171 190 193 197 215 226 270 299 291 237 255 39 256 256 192 293 87 178 116 257 30 344 182 161 166 176 183
311 312 314 317 319 314 283 242 219 208 203 202 203 208 244 226 205 201 181 185 192 196 212 216 254 262 323 192 235 264 251 214 179 351 68 150 128 51 29 90 136 171 141 170 191
312 306 307 312 315 312 278 233 204 198 195 195 197 204 251 228 216 208 184 187 192 198 223 211 239 265 261 266 237 243 225 204 110 315 121 239 135 123 139 154 154 153 167 178 193
319 302 303 306 313 309 254 195 178 181 188 183 172 213 246 226 204 192 188 189 186 194 206 215 237 248 215 234 217 213 291 135 215 68 187 231 115 113 171 161 156 164 189 201 198
320 305 300 302 311 292 182 162 165 175 176 185 242 233 233 207 188 189 188 190 190 188 203 219 229 230 233 231 253 253 177 178 48 97 234 120 87 151 175 197 181 202 227 153 181
322 311 299 299 305 213 159 133 143 217 210 208 210 246 136 154 175 187 186 192 191 197 209 207 224 224 227 108 181 277 299 276 119 148 234 13 131 165 164 184 194 245 340 90 152
321 310 298 296 289 203 187 205 343 329 249 223 229 231 211 190 184 190 185 197 199 203 212 190 233 235 95 90 252 256 240 250 134 179 253 175 154 163 178 139 168 113 125 143 147
317 307 298 294 276 211 200 206 249 336 257 178 209 218 198 197 200 187 189 199 201 213 204 228 195 245 167 217 228 233 245 263 169 209 236 195 103 292 173 143 133 125 133 148 145
312 299 290 285 14 209 228 238 249 312 268 154 191 211 193 197 216 187 196 199 201 216 219 229 234 207 242 236 236 247 151 257 269 240 156 266 229 244 187 144 164 149 155 159 151
306 289 257 209 188 192 128 192 198 260 255 141 151 149 181 199 165 193 192 206 223 215 223 207 233 181 230 226 215 265 249 263 240 251 232 200 288 325 169 162 155 160 166 160 162
301 280 239 220 226 180 206 194 177 228 246 152 151 186 174 204 178 172 192 216 225 224 224 235 205 240 232 223 246 265 246 243 238 244 240 244 259 73 291 130 147 155 163 152 159
295 272 219 186 185 207 187 179 214 241 125 155 174 174 190 186 199 175 191 201 207 213 214 217 236 208 250 234 202 228 244 237 254 231 147 239 270 175 253 143 146 153 158 161 160
291 230 195 189 225 177 176 211 247 215 209 141 174 175 195 178 197 179 195 202 216 219 202 206 213 204 199 232 213 219 241 116 254 316 35 247 139 175 161 130 140 152 158 160 164
101 149 184 206 183 178 201 217 220 233 132 180 170 182 198 181 199 200 204 214 202 223 239 195 229 197 218 209 243 240 237 136 236 262 213 63 131 128 139 147 158 152 159 165 168
106 144 143 178 170 173 224 244 298 11 307 278 195 190 193 183 210 196 198 211 217 206 243 265 214 211 192 220 222 252 286 255 230 222 272 66 286 130 165 151 169 160 165 170 173
121 193 165 159 163 204 223 233 239 176 259 249 220 183 207 191 201 193 204 216 212 196 220 249 234 170 192 204 222 208 248 258 283 46 284 125 320 316 164 168 169 170 167 170 172
283 214 164 161 201 212 226 245 16 239 195 266 307 275 222 213 197 229 230 211 192 205 205 225 217 213 190 213 226 246 238 243 250 224 157 249 195 254 204 173 174 165 172 166 167
258 105 170 185 228 194 236 257 232 255 232 220 225 241 217 224 195 229 202 179 194 211 201 208 241 237 197 206 198 252 249 274 272 244 70 352 198 228 168 170 177 170 165 161 166
269 149 165 213 265 277 206 218 217 202 278 292 299 279 245 185 202 199 222 149 188 209 197 221 234 249 219 219 215 211 229 246 256 266 123 259 233 172 200 173 173 171 170 167 175
243 9 135 187 232 247 318 293 214 229 196 208 237 248 207 216 216 205 214 150 200 182 179 218 226 245 261 219 249 242 257 232 236 253 255 168 330 24 255 165 169 168 168 170 175
319 338 246 305 346 210 172 232 230 226 250 211 236 207 231 243 315 178 199 170 187 179 195 206 241 240 251 255 220 259 268 264 244 248 264 55 332 85 257 147 164 175 177 174 175
341 299 279 179 221 222 206 241 244 333 259 257 9 324 278 319 10 252 130 195 166 189 203 219 225 229 243 233 247 242 258 256 254 237 266 182 156 182 191 153 176 178 180 177 178